Regional Weather Roundup
Issued by NWS Sioux Falls, SD

Home | Current Version | Previous Version | Graphics & Text | Print | Product List | Glossary Off
Versions: 1 2 3 4 5 6 7 8 9 10 11 12 13 14 15 16 17 18 19 20 21 22 23 24 25 26 27 28 29 30 31 32 33 34 35 36 37 38 39 40 41 42 43 44 45 46 47 48 49 50

000
ASUS43 KFSD 051110
RWRFSD

WEATHER ROUNDUP FOR SE SOUTH DAKOTA/SW MINNESOTA/NW IOWA
NATIONAL WEATHER SERVICE SIOUX FALLS SD
600 AM CDT THU MAY 05 2016

NOTE: "FAIR" INDICATES FEW OR NO CLOUDS BELOW 12,000 FEET WITH NO
SIGNIFICANT WEATHER AND OR OBSTRUCTIONS TO VISIBILITY.


SDZ038>040-050-052>070-051200-
SOUTHEAST SOUTH DAKOTA

CITY           SKY/WX    TMP DP  RH WIND       PRES   REMARKS
BROOKINGS      CLEAR     42  35  76 SE5       30.01S
CHAMBERLAIN    CLEAR     50  44  79 SW5       30.02S
HURON          CLEAR     44  39  82 S5        30.00R
MADISON        FAIR      45  32  61 SW7       30.02S
MITCHELL       CLEAR     46  41  82 S6        30.02S
SIOUX FALLS    PTCLDY    39  36  89 CALM      30.04R
WINNER         FAIR      52  38  58 SW7       30.03S
YANKTON        CLEAR     43  37  81 CALM      30.04R
$$

MNZ071-072-080-081-089-090-097-098-051200-
SOUTHWEST MINNESOTA

CITY           SKY/WX    TMP DP  RH WIND       PRES   REMARKS
FAIRMONT       CLEAR     39  30  70 S5        30.02R
JACKSON        CLEAR     43  32  65 CALM      30.03R
LUVERNE        CLEAR     37  36  93 CALM      30.04R
MARSHALL       CLEAR     44  32  62 SW7       30.01R
MONTEVIDEO     CLEAR     43  34  70 CALM      30.01S
PIPESTONE      CLEAR     45  32  61 CALM      30.02S
REDWOOD FALLS  CLEAR     41  30  65 SW3       30.01R
TRACY          CLEAR     47  34  59 SW6       30.01S
WINDOM         CLEAR     39  34  81 CALM      30.02R
WORTHINGTON    CLEAR     42  33  70 SW5       30.03R
$$

IAZ001>003-012>014-020>022-031-032-NEZ013-014-SDZ071-051200-
NORTHWEST IOWA

CITY           SKY/WX    TMP DP  RH WIND       PRES   REMARKS
CHEROKEE       CLEAR     38  38 100 CALM      30.04S
DENISON        CLEAR     37  37 100 CALM      30.03R
ESTHERVILLE    CLEAR     38  35  89 W3        30.03R
LE MARS        CLEAR     39  37  93 CALM      30.06R
ORANGE CITY    CLEAR     46  36  66 CALM      30.05R
SHELDON        MOCLDY    37  36  93 CALM      30.03R
SIOUX CITY     CLEAR     42  37  82 N3        30.05R
SPENCER        CLEAR     37  34  89 CALM      30.04R
STORM LAKE     CLEAR     50  34  53 CALM      30.04R
$$

ABBREVIATIONS USED IN REMARKS
   TC - TEMPERATURE IN CELSIUS
  WCI - WIND CHILL INDEX
   HX - HEAT INDEX
  VSB - VISIBILITY





USA.gov is the U.S. government's official web portal to all federal, state and local government web resources and services.